Location: �clusier
(49.9361°N, 2.7869°E)
Time: 06:28:12
(UTC+00:00)

ATLAS CENTAUR R/B - Pass Details

Date: 16 June 2021
Orbit: 472 x 671 km, 64.6° (Epoch: 13 June)

Event Time Altitude Azimuth Distance (km) Brightness Sun altitude
Rises 21:36:20 0° 320° (NW) 2,759 6.9 -10.9°
Reaches altitude 10° 21:38:30 10° 322° (NW) 1,893 5.6 -11.1°
Maximum altitude 21:42:47 74° 48° (NE) 633 1.6 -11.5°
Enters shadow 21:46:25 16° 132° (SE) 1,652 3.2 -11.8°
